Tracking 23752 objects as of 23-Oct-2021
HD Live streaming from Space Station
objects crossing your sky now

DIAMANT R/B

Track DIAMANT R/B now!
10-day predictions


NORAD ID: 2017
Int'l Code: 1966-013B
Perigee: 502.8 km
Apogee: 2,165.5 km
Inclination: 34.1 °
Period: 112.2 minutes
Semi major axis: 7705 km
RCS: 0.7635 m2 (medium)
Launch date: February 17, 1966
Source: France (FR)
Launch site: HAMMA GUIRA SPACE TRACK RANGE (HGSTR)

Note: This is a ROCKET BODY
aabbcc
Your satellite tracking list
Your tracking list is empty




NASA's NSSDC Master Catalog

Two Line Element Set (TLE):
1  2017U 66013B   21296.47225683  .00000195  00000-0  59796-4 0  9998
2  2017  34.0674 359.5648 1078942  53.2897 316.2064 12.83593679550422
Source of the keplerian elements: AFSPC